Waterloo, IA

3:42 AM CST on November 20, 2017 (GMT -0600)
Waterloo Municipal

Weather History for KALO - February, 2013

Change the Weather History Date:

Monday, February 4, 2013

  Actual Average Record
Temperature  
Mean Temperature 16 °F 20 °F  
Max Temperature 24 °F 29 °F 54 °F (1964)
Min Temperature 8 °F 11 °F -25 °F (1996)
Degree Days  
Heating Degree Days 49 45  
Month to date heating degree days 210 181  
Since 1 July heating degree days 4246 4435  
Cooling Degree Days 0 0  
Month to date cooling degree days 0 0  
Year to date cooling degree days 0 0  
Moisture  
Dew Point 12 °F    
Average Humidity 75    
Maximum Humidity 88    
Minimum Humidity 62    
Precipitation  
Precipitation 0.00 in 0.03 in 1.24 in (1986)
Month to date precipitation 0.06 0.12  
Year to date precipitation 1.36 0.95  
Snow  
Snow 0.00 in 0.30 in 9.00 in (1903)
Month to date snowfall 0.9 1.2  
Since 1 July snowfall 19.7 22.7  
Snow Depth 4.00 in    
Sea Level Pressure  
Sea Level Pressure 29.95 in    
Wind  
Wind Speed 8 mph (NE)    
Max Wind Speed 20 mph    
Max Gust Speed 25 mph    
Visibility 9 miles    
Events      
T = Trace of Precipitation, MM = Missing Value Source: NWS Daily Summary

Daily Weather History Graph

Daily Weather History Graph

Search for Another Location

Airport or City:

Trip Planner

Search our weather history database for the weather conditions in past years. The results will help you decide how hot, cold, wet, or windy it might be!

Date:

Astronomy

Feb. 04, 2013 Rise Set
Actual Time 7:20 AM CST 5:27 PM CST
Civil Twilight 6:50 AM CST 5:57 PM CST
Nautical Twilight 6:16 AM CST 6:30 PM CST
Astronomical Twilight 5:43 AM CST 7:03 PM CST
Moon 1:57 AM CST (2/4) 11:49 AM CST (2/4)
Length of Visible Light 11h 06m
Length of Day
10h 07m
Last Quarter, 37% of the Moon is Illuminated
Feb 4
Last Quarter
Feb 10
New
Feb 17
First Quarter
Feb 25
Full
Mar 4
Last Quarter

Hourly Weather History & Observations

Time (CST) Temp. Windchill Dew Point Humidity Pressure Visibility Wind Dir Wind Speed Gust Speed Precip Events Conditions
12:54 AM 24.1 °F 17.0 °F 16.0 °F 71% 29.85 in 10.0 mi ESE 5.8 mph - N/A   Overcast
1:54 AM 23.0 °F 14.7 °F 17.1 °F 78% 29.84 in 10.0 mi East 6.9 mph - N/A   Overcast
2:54 AM 23.0 °F 14.7 °F 17.1 °F 78% 29.85 in 10.0 mi ENE 6.9 mph - N/A   Overcast
3:10 AM 23.0 °F 13.9 °F 17.6 °F 80% 29.81 in 10.0 mi ENE 8.1 mph - N/A   Overcast
4:54 AM 21.0 °F 8.1 °F 17.1 °F 85% 29.85 in 10.0 mi NE 13.8 mph - N/A   Overcast
5:54 AM 19.0 °F 5.6 °F 15.1 °F 85% 29.89 in 9.0 mi NNE 13.8 mph - N/A   Overcast
6:24 AM 17.6 °F 2.7 °F 12.2 °F 79% 29.85 in 10.0 mi NNE 16.1 mph - N/A   Mostly Cloudy
6:54 AM 16.0 °F 0.1 °F 12.9 °F 88% 29.92 in 9.0 mi NE 17.3 mph - N/A   Overcast
7:54 AM 17.1 °F 3.0 °F 12.0 °F 81% 29.95 in 10.0 mi NNE 13.8 mph - N/A   Overcast
8:54 AM 17.1 °F 3.6 °F 12.0 °F 81% 29.97 in 4.0 mi NNE 12.7 mph - N/A   Haze
9:07 AM 15.8 °F 1.4 °F 10.4 °F 79% 29.93 in 2.5 mi NNE 13.8 mph - N/A   Haze
9:51 AM 15.8 °F 2.1 °F 10.4 °F 79% 29.94 in 4.0 mi NNE 12.7 mph - N/A   Haze
9:54 AM 16.0 °F 2.3 °F 10.9 °F 81% 29.99 in 5.0 mi NNE 12.7 mph - N/A   Haze
10:54 AM 18.0 °F 5.4 °F 10.9 °F 74% 30.02 in 10.0 mi NNE 11.5 mph - N/A   Overcast
11:54 AM 18.0 °F 6.1 °F 10.9 °F 74% 30.04 in 10.0 mi NNW 10.4 mph - N/A   Overcast
12:54 PM 19.0 °F 7.5 °F 10.9 °F 71% 30.01 in 10.0 mi NNE 10.4 mph - N/A   Overcast
1:12 PM 19.4 °F 9.5 °F 10.4 °F 68% 29.95 in 10.0 mi NNE 8.1 mph - N/A   Scattered Clouds
1:54 PM 19.9 °F 11.1 °F 10.9 °F 68% 29.99 in 10.0 mi NNE 6.9 mph - N/A   Clear
2:54 PM 21.0 °F 12.4 °F 10.9 °F 65% 30.00 in 10.0 mi NNW 6.9 mph - N/A   Clear
3:54 PM 19.9 °F 11.1 °F 10.0 °F 65% 30.01 in 10.0 mi NNW 6.9 mph - N/A   Clear
4:54 PM 17.1 °F 11.7 °F 9.0 °F 71% 30.00 in 10.0 mi NE 3.5 mph - N/A   Clear
5:54 PM 16.0 °F - 9.0 °F 74% 30.01 in 10.0 mi Calm Calm - N/A   Clear
6:54 PM 14.0 °F - 10.0 °F 84% 30.01 in 10.0 mi Calm Calm - N/A   Clear
7:54 PM 15.1 °F 7.7 °F 9.0 °F 77% 29.98 in 10.0 mi SSE 4.6 mph - N/A   Scattered Clouds
8:54 PM 10.9 °F 2.9 °F 6.1 °F 81% 29.97 in 10.0 mi East 4.6 mph - N/A   Clear
9:54 PM 12.9 °F 3.8 °F 8.1 °F 81% 29.96 in 10.0 mi SE 5.8 mph - N/A   Clear
10:54 PM 16.0 °F 8.8 °F 9.0 °F 74% 29.96 in 10.0 mi South 4.6 mph - N/A   Mostly Cloudy
11:54 PM 16.0 °F 5.3 °F 10.0 °F 77% 29.96 in 10.0 mi South 8.1 mph - N/A   Overcast